Powrót do katalogu

STARLINK-3974

AktywnyŁącznośćVLEO
NORAD 52634·PAYLOAD·🇺🇸 United States

Wystrzelony May 14, 2022 z Cape Canaveral Space Force Station

Loading…

Następne Przeloty (najbliższe 24 godziny)

TLE

ŚwieżeSource: CelesTrak SupGP

Epoka: Sep 15, 2026, 02:14 UTC

1 52634C 22052AN  26258.09354167  .00033878  00000+0  96923-3 0  2587
2 52634  53.1573 128.0037 0001211  83.0190 147.0143 15.35383098    19

Śledź STARLINK-3974 w czasie rzeczywistym z AllMySat

Download on the App Store